Location: Huppendorf
(49.9333°N, 11.1500°E)
Time: 08:18:27
(UTC+00:00)

Cosmos 2034 Rocket - Pass Details

Date: 27 February 2020
Orbit: 959 x 1000 km, 82.9° (Epoch: 03 April)

Event Time Altitude Azimuth Distance (km) Brightness Sun altitude
Rises 18:26:47 0° 179° (S) 3,633 6.9 -15.8°
Reaches altitude 10° 18:29:17 10° 177° (S) 2,688 6.2 -16.2°
Maximum altitude 18:35:22 70° 95° (E) 1,020 3.9 -17.2°
Drops below altitude 10° 18:41:31 10° 13° (NNE) 2,706 6.3 -18.1°
Sets 18:44:02 0° 12° (NNE) 3,659 7.0 -18.5°
